Gainesville, GA

4:31 PM EST on December 06, 2019 (GMT -0500)
Gilmer Memorial

Weather History for KGVL - November, 2019

Change the Weather History Date:

Tuesday, November 12, 2019

  Actual Average Record
Temperature  
Mean Temperature 42 °F 54 °F  
Max Temperature 57 °F 63 °F 79 °F (1938)
Min Temperature 26 °F 45 °F 21 °F (1941)
Degree Days  
Heating Degree Days 23 11  
Month to date heating degree days 178 117  
Since 1 July heating degree days 258 275  
Moisture  
Dew Point 42 °F    
Average Humidity 77    
Maximum Humidity 100    
Minimum Humidity 53    
Precipitation  
Precipitation 0.47 in 0.12 in 3.44 in (2018)
Month to date precipitation 0.97 1.43  
Year to date precipitation 43.07 46.44  
Snow  
Snow 0.00 in - - ()
Month to date snowfall 0.0  
Since 1 July snowfall 0.0  
Since 1 September snowfall 0.0  
Snow Depth 0.00 in    
Sea Level Pressure  
Sea Level Pressure 30.00 in    
Wind  
Wind Speed 11 mph (WNW)    
Max Wind Speed 22 mph    
Max Gust Speed 28 mph    
Visibility 8 miles    
Events Rain    
T = Trace of Precipitation, MM = Missing Value Source: NWS Daily Summary

Daily Weather History Graph

Daily Weather History Graph

Search for Another Location

Airport or City:

Astronomy

Nov. 12, 2019 Rise Set
Actual Time 7:05 AM EST 5:33 PM EST
Civil Twilight 6:38 AM EST 5:59 PM EST
Nautical Twilight 6:08 AM EST 6:29 PM EST
Astronomical Twilight 5:38 AM EST 6:59 PM EST
Moon 5:58 PM EST (11/12) 6:58 AM EST (11/12)
Length of Visible Light 11h 20m
Length of Day
10h 27m
Full, 100% of the Moon is Illuminated
Nov 12
Full
Nov 19
Last Quarter
Nov 26
New
Dec 4
First Quarter
Dec 12
Full

Hourly Weather History & Observations

Time (EST) Temp. Windchill Dew Point Humidity Pressure Visibility Wind Dir Wind Speed Gust Speed Precip Events Conditions
12:53 AM 57.0 °F - 51.1 °F 81% 29.98 in 10.0 mi SW 5.8 mph - 0.00 in   Overcast
1:19 AM 55.9 °F - 54.0 °F 93% 29.99 in 9.0 mi SW 5.8 mph - 0.00 in Rain Light Rain
1:30 AM 55.9 °F - 55.0 °F 97% 29.98 in 10.0 mi SW 6.9 mph - 0.00 in Rain Light Rain
1:53 AM 55.9 °F - 55.0 °F 97% 29.95 in 8.0 mi SW 5.8 mph - 0.01 in Rain Light Rain
2:06 AM 55.9 °F - 55.9 °F 100% 29.96 in 5.0 mi SW 3.5 mph - 0.01 in Rain Light Rain
2:18 AM 55.9 °F - 55.9 °F 100% 29.96 in 5.0 mi SW 5.8 mph - 0.02 in Rain Light Rain
2:53 AM 55.9 °F - 55.9 °F 100% 29.92 in 7.0 mi SW 6.9 mph - 0.03 in Rain Light Rain
3:13 AM 55.9 °F - 55.9 °F 100% 29.92 in 9.0 mi Variable 3.5 mph - 0.00 in Rain Light Rain
3:35 AM 55.9 °F - 55.9 °F 100% 29.91 in 9.0 mi SW 4.6 mph - 0.01 in Rain Light Rain
3:53 AM 55.9 °F - 55.9 °F 100% 29.87 in 8.0 mi WSW 8.1 mph - 0.01 in Rain Light Rain
4:05 AM 55.9 °F - 55.9 °F 100% 29.89 in 4.0 mi West 5.8 mph - 0.02 in Rain Rain
4:19 AM 55.9 °F - 55.9 °F 100% 29.89 in 5.0 mi West 5.8 mph - 0.03 in Rain Light Rain
4:44 AM 55.9 °F - 55.9 °F 100% 29.89 in 2.5 mi West 5.8 mph - 0.05 in Rain Light Rain
4:51 AM 55.4 °F - 55.4 °F 100% 29.89 in 3.0 mi WNW 11.5 mph - 0.06 in Rain Light Rain
4:52 AM 55.0 °F - 55.0 °F 100% 29.87 in 3.0 mi WNW 10.4 mph - 0.06 in Rain Light Rain
5:03 AM 54.0 °F - 54.0 °F 100% 29.91 in 2.5 mi WNW 11.5 mph - 0.03 in Rain Heavy Rain
5:18 AM 53.1 °F - 53.1 °F 100% 29.91 in 3.0 mi WNW 8.1 mph - 0.10 in Rain Rain
5:36 AM 50.0 °F - 48.9 °F 96% 29.92 in 7.0 mi NNW 12.7 mph 27.6 mph 0.14 in Rain Rain
5:53 AM 48.9 °F - 48.0 °F 97% 29.90 in 6.0 mi NW 5.8 mph - 0.16 in Rain Light Rain
6:53 AM 45.0 °F 38.9 °F 44.1 °F 97% 29.94 in 9.0 mi WNW 12.7 mph - 0.08 in Rain Light Rain
7:53 AM 42.1 °F 36.1 °F 41.0 °F 96% 29.96 in 7.0 mi NW 10.4 mph - 0.10 in Rain Rain
8:53 AM 39.9 °F 33.4 °F 39.0 °F 97% 29.99 in 10.0 mi WNW 10.4 mph 20.7 mph 0.02 in Rain Light Rain
10:53 AM 39.9 °F 31.8 °F 36.0 °F 86% 30.02 in 10.0 mi NW 15.0 mph - N/A   Clear
11:53 AM 43.0 °F 36.8 °F 35.1 °F 74% 30.04 in 10.0 mi WNW 11.5 mph 23.0 mph N/A   Clear
12:53 PM 45.0 °F 38.9 °F 33.1 °F 63% 30.02 in 10.0 mi WNW 12.7 mph 24.2 mph N/A   Clear
1:53 PM 44.1 °F 37.1 °F 30.0 °F 58% 30.03 in 10.0 mi WNW 15.0 mph 26.5 mph N/A   Clear
2:53 PM 42.1 °F 34.9 °F 27.0 °F 55% 30.05 in 10.0 mi NW 13.8 mph 21.9 mph N/A   Clear
3:53 PM 39.0 °F 30.6 °F 27.0 °F 62% 30.08 in 10.0 mi WNW 15.0 mph 25.3 mph N/A   Clear
4:53 PM 37.0 °F 28.9 °F 25.0 °F 62% 30.10 in 10.0 mi NW 12.7 mph - N/A   Clear
6:53 PM 30.9 °F 20.2 °F 21.9 °F 69% 30.18 in 10.0 mi NNW 15.0 mph - N/A   Clear
7:53 PM 28.9 °F 18.2 °F 19.9 °F 69% 30.19 in 10.0 mi NW 13.8 mph 23.0 mph N/A   Clear
8:53 PM 28.0 °F 18.1 °F 19.0 °F 69% 30.21 in 10.0 mi NW 11.5 mph - N/A   Clear
9:53 PM 28.0 °F 19.3 °F 18.0 °F 66% 30.23 in 10.0 mi NW 9.2 mph - N/A   Clear
10:53 PM 27.0 °F 16.7 °F 18.0 °F 69% 30.25 in 10.0 mi NW 11.5 mph - N/A   Clear
11:53 PM 26.1 °F 17.6 °F 18.0 °F 71% 30.26 in 10.0 mi NW 8.1 mph - N/A   Clear